| time (UTC) | temp C | wind direction | speed KPH | gust KPH | rain 1hr cm | rain 24hr cm | rain mn cm | humidity % | barometer mb |
| 20260507093518 | 0 | 225 | 3.2 | 6.4 | 0.00 | 0.00 | 0.00 | 78 | 1013.7 |
| 20260507092517 | 0 | 225 | 3.2 | 6.4 | 0.00 | 0.00 | 0.00 | 78 | 1013.9 |
| 20260507091517 | 0 | 0.0 | 3.2 | 0.00 | 0.00 | 0.00 | 80 | 1013.9 | |
| 20260507090517 | 0 | 0.0 | 0.0 | 0.00 | 0.00 | 0.00 | 81 | 1014.0 | |
| 20260507085517 | 0 | 248 | 1.6 | 3.2 | 0.00 | 0.00 | 0.00 | 81 | 1014.0 |
| 20260507084517 | 0 | 0.0 | 3.2 | 0.00 | 0.00 | 0.00 | 82 | 1014.1 | |
| 20260507083537 | 0 | 248 | 3.2 | 6.4 | 0.00 | 0.00 | 0.00 | 81 | 1014.0 |
| 20260507082517 | 0 | 0.0 | 0.0 | 0.00 | 0.00 | 0.00 | 79 | 1014.2 | |
| 20260507081517 | 0 | 0.0 | 3.2 | 0.00 | 0.00 | 0.00 | 80 | 1014.1 | |
| 20260507080517 | -1 | 0.0 | 1.6 | 0.00 | 0.00 | 0.00 | 82 | 1014.2 | |
| 20260507075517 | -1 | 225 | 3.2 | 4.8 | 0.00 | 0.00 | 0.00 | 83 | 1014.2 |
| 20260507074517 | -1 | 248 | 3.2 | 4.8 | 0.00 | 0.00 | 0.00 | 82 | 1014.2 |
| 20260507073517 | -1 | 0.0 | 0.0 | 0.00 | 0.00 | 0.00 | 82 | 1014.3 | |
| 20260507072517 | -1 | 0.0 | 3.2 | 0.00 | 0.00 | 0.00 | 80 | 1014.1 | |
| 20260507071517 | -1 | 248 | 1.6 | 3.2 | 0.00 | 0.00 | 0.00 | 78 | 1014.2 |
| 20260507070517 | 0 | 180 | 3.2 | 4.8 | 0.00 | 0.00 | 0.00 | 74 | 1014.3 |
| 20260507065517 | 0 | 0.0 | 3.2 | 0.00 | 0.00 | 0.00 | 74 | 1014.4 | |
| 20260507064517 | 0 | 0.0 | 1.6 | 0.00 | 0.00 | 0.00 | 74 | 1014.5 | |
| 20260507063518 | 0 | 248 | 1.6 | 4.8 | 0.00 | 0.00 | 0.00 | 74 | 1014.6 |
| 20260507062517 | 0 | 248 | 1.6 | 3.2 | 0.00 | 0.00 | 0.00 | 72 | 1014.6 |
| 20260507061517 | 0 | 0.0 | 0.0 | 0.00 | 0.00 | 0.00 | 71 | 1014.8 | |
| 20260507060517 | 0 | 0.0 | 0.0 | 0.00 | 0.00 | 0.00 | 71 | 1014.8 | |
| 20260507055517 | 0 | 248 | 1.6 | 3.2 | 0.00 | 0.00 | 0.00 | 71 | 1014.7 |
| 20260507054516 | 0 | 180 | 1.6 | 3.2 | 0.00 | 0.00 | 0.00 | 70 | 1015.0 |
| 20260507053517 | 0 | 158 | 1.6 | 3.2 | 0.00 | 0.00 | 0.00 | 69 | 1014.9 |
| 20260507052516 | 1 | 158 | 3.2 | 6.4 | 0.00 | 0.00 | 0.00 | 68 | 1014.9 |
| 20260507051537 | 1 | 158 | 4.8 | 6.4 | 0.00 | 0.00 | 0.00 | 66 | 1014.9 |
| 20260507050517 | 1 | 158 | 6.4 | 8.0 | 0.00 | 0.00 | 0.00 | 65 | 1015.3 |
| 20260507045515 | 2 | 180 | 3.2 | 4.8 | 0.00 | 0.00 | 0.00 | 64 | 1015.3 |
| 20260507044515 | 2 | 0.0 | 0.0 | 0.00 | 0.00 | 0.00 | 64 | 1015.6 | |
| 20260507043517 | 1 | 0.0 | 0.0 | 0.00 | 0.00 | 0.00 | 66 | 1015.5 | |
| 20260507042515 | 1 | 0.0 | 0.0 | 0.00 | 0.00 | 0.00 | 65 | 1015.7 | |
| 20260507041515 | 1 | 0.0 | 0.0 | 0.00 | 0.00 | 0.00 | 65 | 1015.7 | |
| 20260507040535 | 2 | 0.0 | 0.0 | 0.00 | 0.00 | 0.00 | 63 | 1015.8 | |
| 20260507035515 | 2 | 0.0 | 0.0 | 0.00 | 0.00 | 0.00 | 60 | 1015.8 | |
| 20260507034515 | 3 | 0.0 | 0.0 | 0.00 | 0.00 | 0.00 | 59 | 1015.9 | |
| 20260507033537 | 3 | 0.0 | 0.0 | 0.00 | 0.00 | 0.00 | 58 | 1015.9 | |
| 20260507032517 | 3 | 0.0 | 0.0 | 0.00 | 0.00 | 0.00 | 58 | 1015.9 | |
| 20260507031517 | 3 | 0.0 | 0.0 | 0.00 | 0.00 | 0.00 | 58 | 1015.9 | |
| 20260507030517 | 3 | 0.0 | 0.0 | 0.00 | 0.00 | 0.00 | 57 | 1015.9 | |
| 20260507025517 | 3 | 0.0 | 0.0 | 0.00 | 0.00 | 0.00 | 58 | 1016.0 | |
| 20260507024537 | 3 | 315 | 1.6 | 1.6 | 0.00 | 0.00 | 0.00 | 58 | 1016.0 |
| 20260507023517 | 3 | 315 | 3.2 | 3.2 | 0.00 | 0.00 | 0.00 | 58 | 1016.0 |
| 20260507022518 | 3 | 315 | 1.6 | 4.8 | 0.00 | 0.00 | 0.00 | 58 | 1015.7 |
| 20260507021519 | 3 | 0.0 | 0.0 | 0.00 | 0.00 | 0.00 | 57 | 1015.6 | |
| 20260507020537 | 3 | 315 | 1.6 | 3.2 | 0.00 | 0.00 | 0.00 | 57 | 1015.8 |
| 20260507015517 | 3 | 293 | 1.6 | 3.2 | 0.00 | 0.00 | 0.00 | 56 | 1015.4 |
| 20260507014517 | 3 | 293 | 1.6 | 3.2 | 0.00 | 0.00 | 0.00 | 56 | 1015.5 |
| 20260507013537 | 4 | 315 | 3.2 | 6.4 | 0.00 | 0.00 | 0.00 | 55 | 1015.5 |
| 20260507012537 | 4 | 315 | 6.4 | 12.9 | 0.00 | 0.00 | 0.00 | 54 | 1015.3 |
| 20260507011537 | 5 | 293 | 4.8 | 12.9 | 0.00 | 0.00 | 0.00 | 54 | 1015.3 |
| 20260507010517 | 5 | 315 | 6.4 | 14.5 | 0.00 | 0.00 | 0.00 | 53 | 1015.4 |
| 20260507005517 | 5 | 315 | 8.0 | 17.7 | 0.00 | 0.00 | 0.00 | 53 | 1015.4 |
| 20260507004517 | 5 | 315 | 4.8 | 12.9 | 0.00 | 0.00 | 0.00 | 53 | 1015.5 |
| 20260507003517 | 5 | 270 | 9.7 | 16.1 | 0.00 | 0.00 | 0.00 | 53 | 1015.3 |
| 20260507002517 | 5 | 315 | 9.7 | 17.7 | 0.00 | 0.00 | 0.00 | 52 | 1015.2 |
| 20260507001517 | 5 | 270 | 4.8 | 9.7 | 0.00 | 0.00 | 0.00 | 52 | 1015.2 |
| 20260507000517 | 5 | 270 | 8.0 | 16.1 | 0.00 | 0.00 | 0.00 | 52 | 1015.1 |
| 20260506235518 | 5 | 315 | 8.0 | 16.1 | 0.00 | 0.00 | 0.00 | 52 | 1015.2 |
| 20260506234519 | 6 | 315 | 8.0 | 16.1 | 0.00 | 0.00 | 0.00 | 52 | 1015.0 |
| 20260506233517 | 6 | 315 | 11.3 | 17.7 | 0.00 | 0.00 | 0.00 | 51 | 1015.0 |
| 20260506232517 | 6 | 293 | 6.4 | 14.5 | 0.00 | 0.00 | 0.00 | 53 | 1015.0 |
| 20260506231517 | 6 | 315 | 11.3 | 25.7 | 0.00 | 0.00 | 0.00 | 52 | 1014.9 |
| 20260506230517 | 6 | 315 | 8.0 | 16.1 | 0.00 | 0.00 | 0.00 | 52 | 1015.1 |
| 20260506225517 | 6 | 270 | 12.9 | 27.4 | 0.00 | 0.00 | 0.00 | 51 | 1015.2 |
| 20260506224517 | 6 | 315 | 9.7 | 20.9 | 0.00 | 0.00 | 0.00 | 52 | 1015.0 |
| 20260506223517 | 6 | 293 | 9.7 | 16.1 | 0.00 | 0.00 | 0.00 | 51 | 1015.1 |
| 20260506222517 | 6 | 293 | 9.7 | 19.3 | 0.00 | 0.00 | 0.00 | 52 | 1015.1 |
| 20260506221517 | 6 | 270 | 12.9 | 20.9 | 0.00 | 0.00 | 0.00 | 51 | 1015.0 |
| 20260506220517 | 6 | 270 | 11.3 | 17.7 | 0.00 | 0.00 | 0.00 | 51 | 1015.1 |
| 20260506215517 | 6 | 270 | 11.3 | 22.5 | 0.00 | 0.00 | 0.00 | 50 | 1015.1 |
| 20260506214517 | 6 | 270 | 14.5 | 24.1 | 0.00 | 0.00 | 0.00 | 49 | 1015.0 |
| 20260506213517 | 6 | 270 | 9.7 | 20.9 | 0.00 | 0.00 | 0.00 | 50 | 1015.0 |
| 20260506212517 | 6 | 293 | 16.1 | 30.6 | 0.00 | 0.00 | 0.00 | 50 | 1015.0 |
| 20260506211517 | 6 | 270 | 14.5 | 24.1 | 0.00 | 0.00 | 0.00 | 50 | 1015.0 |
| 20260506210517 | 6 | 270 | 11.3 | 24.1 | 0.00 | 0.00 | 0.00 | 51 | 1014.9 |
| 20260506205517 | 6 | 270 | 9.7 | 24.1 | 0.00 | 0.00 | 0.00 | 50 | 1015.1 |
| 20260506204516 | 6 | 270 | 12.9 | 24.1 | 0.00 | 0.00 | 0.00 | 51 | 1015.0 |
| 20260506203538 | 6 | 270 | 12.9 | 25.7 | 0.00 | 0.00 | 0.00 | 49 | 1015.1 |
| 20260506202517 | 6 | 293 | 12.9 | 27.4 | 0.00 | 0.00 | 0.00 | 49 | 1015.1 |
| 20260506201516 | 6 | 270 | 9.7 | 17.7 | 0.00 | 0.00 | 0.00 | 50 | 1015.1 |
| 20260506200516 | 6 | 270 | 9.7 | 20.9 | 0.00 | 0.00 | 0.00 | 49 | 1015.1 |
| 20260506195556 | 6 | 270 | 12.9 | 27.4 | 0.00 | 0.00 | 0.00 | 50 | 1015.0 |
| 20260506194517 | 6 | 270 | 14.5 | 29.0 | 0.00 | 0.00 | 0.00 | 49 | 1015.1 |
| 20260506193516 | 6 | 315 | 11.3 | 19.3 | 0.00 | 0.00 | 0.00 | 50 | 1015.1 |
| 20260506192516 | 6 | 270 | 12.9 | 29.0 | 0.00 | 0.00 | 0.00 | 50 | 1015.2 |
| 20260506191537 | 6 | 270 | 9.7 | 17.7 | 0.00 | 0.00 | 0.00 | 50 | 1015.1 |
| 20260506190537 | 6 | 293 | 11.3 | 19.3 | 0.00 | 0.00 | 0.00 | 50 | 1015.1 |
| 20260506185537 | 6 | 270 | 14.5 | 25.7 | 0.00 | 0.00 | 0.00 | 50 | 1015.1 |
| 20260506184517 | 6 | 270 | 11.3 | 22.5 | 0.00 | 0.00 | 0.00 | 50 | 1015.2 |
| 20260506183516 | 6 | 270 | 16.1 | 24.1 | 0.00 | 0.00 | 0.00 | 49 | 1015.2 |
| 20260506182516 | 7 | 270 | 11.3 | 20.9 | 0.00 | 0.00 | 0.00 | 49 | 1015.1 |
| 20260506181516 | 7 | 315 | 14.5 | 30.6 | 0.00 | 0.00 | 0.00 | 49 | 1015.1 |
| 20260506180516 | 7 | 270 | 9.7 | 19.3 | 0.00 | 0.00 | 0.00 | 49 | 1015.1 |
| 20260506175516 | 7 | 248 | 12.9 | 19.3 | 0.00 | 0.00 | 0.00 | 52 | 1015.1 |
| 20260506174516 | 6 | 293 | 11.3 | 17.7 | 0.00 | 0.00 | 0.00 | 50 | 1015.2 |
| 20260506173516 | 6 | 248 | 11.3 | 25.7 | 0.00 | 0.00 | 0.00 | 53 | 1015.2 |
| 20260506172517 | 6 | 270 | 14.5 | 25.7 | 0.00 | 0.00 | 0.00 | 52 | 1015.3 |
| 20260506171516 | 6 | 270 | 16.1 | 35.4 | 0.00 | 0.00 | 0.00 | 50 | 1015.2 |
| 20260506170516 | 7 | 270 | 11.3 | 22.5 | 0.00 | 0.00 | 0.00 | 49 | 1015.3 |
| 20260506165516 | 7 | 315 | 17.7 | 32.2 | 0.00 | 0.00 | 0.00 | 51 | 1015.4 |
| 20260506164518 | 6 | 293 | 16.1 | 27.4 | 0.00 | 0.00 | 0.00 | 50 | 1015.3 |
| 20260506163516 | 6 | 315 | 9.7 | 19.3 | 0.00 | 0.00 | 0.00 | 53 | 1015.4 |
| 20260506162516 | 6 | 270 | 11.3 | 25.7 | 0.00 | 0.00 | 0.00 | 50 | 1015.2 |
| 20260506161536 | 6 | 338 | 11.3 | 19.3 | 0.00 | 0.00 | 0.00 | 52 | 1015.1 |
| 20260506160516 | 6 | 293 | 11.3 | 20.9 | 0.00 | 0.00 | 0.00 | 53 | 1015.4 |
| 20260506155516 | 6 | 315 | 14.5 | 25.7 | 0.00 | 0.00 | 0.00 | 53 | 1015.4 |
| 20260506154516 | 6 | 315 | 12.9 | 24.1 | 0.00 | 0.00 | 0.00 | 53 | 1015.4 |
| 20260506153518 | 6 | 315 | 12.9 | 25.7 | 0.00 | 0.00 | 0.00 | 55 | 1015.2 |
| 20260506152518 | 6 | 315 | 12.9 | 20.9 | 0.00 | 0.00 | 0.00 | 51 | 1015.2 |
| 20260506151516 | 6 | 315 | 9.7 | 17.7 | 0.00 | 0.00 | 0.00 | 53 | 1015.2 |
| 20260506150516 | 6 | 338 | 12.9 | 24.1 | 0.00 | 0.00 | 0.00 | 57 | 1015.3 |
| 20260506145536 | 5 | 315 | 12.9 | 22.5 | 0.00 | 0.00 | 0.00 | 55 | 1015.2 |
| 20260506144516 | 5 | 315 | 11.3 | 20.9 | 0.00 | 0.00 | 0.00 | 55 | 1015.4 |
| 20260506143516 | 5 | 315 | 9.7 | 20.9 | 0.00 | 0.00 | 0.00 | 58 | 1015.3 |
| 20260506142516 | 5 | 315 | 12.9 | 24.1 | 0.00 | 0.00 | 0.00 | 55 | 1015.0 |
| 20260506141516 | 5 | 338 | 11.3 | 19.3 | 0.00 | 0.00 | 0.00 | 58 | 1015.0 |
| 20260506140516 | 5 | 315 | 11.3 | 22.5 | 0.00 | 0.00 | 0.00 | 58 | 1015.0 |
| 20260506135516 | 4 | 270 | 14.5 | 29.0 | 0.00 | 0.00 | 0.00 | 56 | 1014.8 |
| 20260506134516 | 5 | 293 | 8.0 | 16.1 | 0.00 | 0.00 | 0.00 | 59 | 1014.8 |
| 20260506133516 | 4 | 315 | 11.3 | 22.5 | 0.00 | 0.00 | 0.00 | 59 | 1014.6 |
| 20260506132516 | 4 | 338 | 9.7 | 17.7 | 0.00 | 0.00 | 0.00 | 60 | 1014.7 |
| 20260506131516 | 3 | 338 | 11.3 | 17.7 | 0.00 | 0.00 | 0.00 | 61 | 1014.5 |
| 20260506130516 | 3 | 293 | 9.7 | 19.3 | 0.00 | 0.00 | 0.00 | 63 | 1014.3 |
| 20260506125516 | 3 | 315 | 9.7 | 16.1 | 0.00 | 0.00 | 0.00 | 66 | 1014.2 |
| 20260506124536 | 3 | 315 | 6.4 | 14.5 | 0.00 | 0.00 | 0.00 | 68 | 1014.2 |
| 20260506123516 | 2 | 315 | 6.4 | 16.1 | 0.00 | 0.00 | 0.00 | 68 | 1013.8 |
| 20260506122536 | 2 | 293 | 6.4 | 12.9 | 0.00 | 0.00 | 0.00 | 69 | 1013.7 |
| 20260506121536 | 2 | 315 | 6.4 | 12.9 | 0.00 | 0.00 | 0.00 | 70 | 1013.8 |
| 20260506120536 | 1 | 293 | 6.4 | 12.9 | 0.00 | 0.00 | 0.00 | 72 | 1013.7 |
| 20260506115516 | 1 | 293 | 6.4 | 14.5 | 0.00 | 0.00 | 0.00 | 74 | 1013.7 |
| 20260506114516 | 1 | 293 | 6.4 | 14.5 | 0.00 | 0.00 | 0.00 | 75 | 1013.6 |
| 20260506113516 | 1 | 293 | 6.4 | 12.9 | 0.00 | 0.00 | 0.00 | 75 | 1013.3 |
| 20260506112516 | 1 | 293 | 6.4 | 12.9 | 0.00 | 0.00 | 0.00 | 74 | 1013.1 |
| 20260506111516 | 1 | 293 | 6.4 | 11.3 | 0.00 | 0.00 | 0.00 | 74 | 1012.9 |
| 20260506110516 | 1 | 293 | 4.8 | 11.3 | 0.00 | 0.00 | 0.00 | 75 | 1012.9 |
| 20260506105516 | 1 | 293 | 4.8 | 11.3 | 0.00 | 0.00 | 0.00 | 74 | 1012.9 |
| 20260506104516 | 1 | 293 | 4.8 | 11.3 | 0.00 | 0.00 | 0.00 | 75 | 1012.9 |
| 20260506103516 | 0 | 293 | 6.4 | 12.9 | 0.00 | 0.00 | 0.00 | 76 | 1012.8 |
| 20260506102516 | 0 | 293 | 4.8 | 11.3 | 0.00 | 0.00 | 0.00 | 76 | 1012.7 |
| 20260506101516 | 1 | 293 | 3.2 | 9.7 | 0.00 | 0.00 | 0.00 | 76 | 1012.8 |
| 20260506100516 | 1 | 293 | 4.8 | 8.0 | 0.00 | 0.00 | 0.00 | 75 | 1012.4 |
| 20260506095536 | 0 | 293 | 3.2 | 6.4 | 0.00 | 0.00 | 0.00 | 76 | 1012.4 |
| 20260506094536 | 1 | 293 | 3.2 | 4.8 | 0.00 | 0.00 | 0.00 | 75 | 1012.4 |